Lexington Weather

Lexington, Massachusetts, USA

46°F
10/22/2019 2:12am 
  • Lexington Conditions: Few Clouds
  • Temperature: 46.4°F / 8.0°CWarmer 0.9°F than last hour.
  • Dew Point: 44.8°FIncreased 1.8°Fsince last hour.
  • Relative Humidity: 94%Increased 3.0% since last hour.
  • Wind: Calm, 10-min avg: Calm, gust: None
  • Barometer: 30.12 in Steady
  • Visibility: 10 miles
  • Rain Today: 0.00 in
  •   

Regional Weather Roundup
for Boston, MA

        
000
ASUS41 KBOX 192310
RWRBOX

REGIONAL WEATHER ROUNDUP
NATIONAL WEATHER SERVICE BOSTON/NORTON MA
700 PM EDT SAT OCT 19 2019

NOTE:  "FAIR" INDICATES FEW OR NO CLOUDS BELOW 12,000 FEET WITH NO 
SIGNIFICANT WEATHER AND/OR OBSTRUCTIONS TO VISIBILITY.

MAZALL-200000-
EASTERN MASSACHUSETTS
  
CITY           SKY/WX    TMP DP  RH WIND       PRES   REMARKS
BOSTON         FAIR      59  33  37 W5        30.00R                  
BEVERLY        FAIR      46  37  71 CALM      29.99R                  
LAWRENCE       FAIR      49  36  61 CALM      30.02R                  
BEDFORD        FAIR      48  36  63 W3        29.99R                  
BLUE HILL      NOT AVBL                                               
NORWOOD        FAIR      45  36  70 CALM      30.00R                  
MARSHFIELD     FAIR      46  43  87 CALM      30.01R                  
PLYMOUTH       FAIR      46  40  79 SE3       30.01R                  
TAUNTON        FAIR      42  38  85 CALM      30.01R                  
NEW BEDFORD    FAIR      47  40  76 CALM      30.01R                  
$$

MAZALL-200000-
CAPE COD AND THE ISLANDS
  
CITY           SKY/WX    TMP DP  RH WIND       PRES   REMARKS
FALMOUTH       CLEAR     48  41  76 W7        30.01R                  
HYANNIS        FAIR      47  40  76 CALM      30.01R                  
CHATHAM        NOT AVBL                                               
PROVINCETOWN   FAIR      43  39  86 S3          N/A                   
NANTUCKET      FAIR      48  40  73 W8        30.03R                  
MARTHAS VNYRD  FAIR      45  40  82 SW5       30.02R                  
$$
 
MAZALL-200000-
CENTRAL AND WESTERN MASSACHUSETTS
  
CITY           SKY/WX    TMP DP  RH WIND       PRES   REMARKS
WORCESTER      FAIR      46  35  65 W6        30.01R                  
FITCHBURG      FAIR      47  37  68 CALM      30.01R                  
ORANGE         FAIR      46  39  76 CALM      30.01R                  
SPRINGFIELD    PTCLDY    50  35  56 CALM      30.00R                  
WESTFIELD      FAIR      49  36  61 NE3       30.00R                  
NORTH ADAMS    FAIR      41  34  76 CALM      30.03R                  
PITTSFIELD     FAIR      44  33  65 SW3       30.00R                  
$$
 
RIZALL-200000-
RHODE ISLAND
  
CITY           SKY/WX    TMP DP  RH WIND       PRES   REMARKS
PROVIDENCE     FAIR      52  38  58 CALM      30.02R                  
NEWPORT        FAIR      53  42  66 CALM      30.02R                  
BLOCK ISLAND   FAIR      52  42  69 W7        30.04R                  
SMITHFIELD     FAIR     N/A N/A N/A CALM      30.02R                  
WESTERLY       FAIR      54  44  69 CALM      30.03R                  
$$
 
CTZALL-200000-
CONNECTICUT
  
CITY           SKY/WX    TMP DP  RH WIND       PRES   REMARKS
BRADLEY INTL   FAIR      55  34  45 NW5       30.00R                  
HARTFORD       FAIR      50  39  66 CALM      30.01R                  
BRIDGEPORT     FAIR      55  41  59 W3        30.01S                  
DANBURY        FAIR      48  37  65 SW3       30.02S                  
GROTON         FAIR      53  42  66 W6        30.02R                  
NEW HAVEN      FAIR      58  43  57 SW6       30.01S                  
CHESTER        FAIR      52  41  66 VRB3      30.01S                  
MERIDEN        FAIR      48  40  73 CALM      30.01R                  
WILLIMANTIC    FAIR      47  41  80 CALM      30.02R                  
OXFORD         FAIR      53  35  50 CALM      30.02S                  
$$

MEZ002-015-021-024-NHZ003-005-008-011-012-014-VTZ005-008-200000-
NORTHERN NEW ENGLAND
  
CITY           SKY/WX    TMP DP  RH WIND       PRES   REMARKS
PORTLAND ME    FAIR      48  33  56 CALM      29.99R                  
BANGOR ME      FAIR      48  35  60 NW8       29.96R                  
CONCORD NH     FAIR      46  34  62 CALM      30.00R                  
MANCHESTER NH  FAIR      51  35  54 CALM      29.99R                  
NASHUA NH      FAIR      48  39  71 NW3       30.01R                  
PORTSMOUTH NH  PTCLDY    48  35  60 CALM      29.98R                  
JAFFREY NH     FAIR      43  36  76 CALM      30.00R                  
KEENE NH       FAIR      44  37  76 CALM      30.01R                  
BURLINGTON VT  FAIR      47  34  60 N3        30.04R                  
MT. WASHINGTON PTCLDY    32  10  40 NW36        N/A  WCI  16          
$$

NYZ052-076-200000-
EASTERN NEW YORK
  
CITY           SKY/WX    TMP DP  RH WIND       PRES   REMARKS
ALBANY         FAIR      50  37  61 N3        30.02S                  
NEW YORK CITY  MOCLDY    57  42  57 S10       30.02R                  
$$
 
ANZALL-200000-
MARINE OBSERVATIONS
  
STATION/POSITION TIME  TEMP    WIND        PRES    VSBY  WAVE
                       AIR SEA DIR/SP/G                  HT/PER
                 (UTC) (F)     (DEG/KT/KT) (MB)    (MI)  (FT/S)
BOSTON BUOY      2250   54 56  160/ 10/ 12 1015.1R         1/14
BUZZARDS BAY     2200   55     240/ 15/ 17 1016.5R
NANTUCKET SOUND  2240      56                N/A           1/ 3
MASS BAY-STELLWA 2204   56 56  220/  6/ 10 1014.7R  1 7/8  1
ISLE OF SHOALS   2200   56     290/  5/  5 1014.6R
S OF BLOCK IS    2300      60                N/A           2/ 4
$$

......................KEY.........................
  SKY/WX - SKY CONDITION/PRESENT WEATHER
  TMP    - TEMPERATURE IN FAHRENHEIT
  DWPT   - DEWPOINT IN FAHRENHEIT
  RH     - RELATIVE HUMIDITY IN PERCENT
  WIND   - DIRECTION AND SPEED IN MPH
  PRES   - MEAN SEA LEVEL PRESSURE IN INCHES OF HG
  WCI    - WIND CHILL INDEX
  VSB    - VISIBILITY IN MILES
  HX     - HEAT INDEX
  TC     - TEMPERATURE IN CELSIUS
  VRB    - VARIABLE WIND DIRECTION
  N/A    - NOT AVAILABLE
  
      

Other recent Regional Weather Roundups

Tue Oct 22, 1:10am

Tue Oct 22, 1:00am

Tue Oct 22, 12:10am

Tue Oct 22, 12:00am

Mon Oct 21, 11:10pm

Mon Oct 21, 11:00pm

Mon Oct 21, 10:10pm

Mon Oct 21, 10:01pm

Mon Oct 21, 9:10pm

Mon Oct 21, 9:00pm

Mon Oct 21, 8:10pm

Mon Oct 21, 8:00pm

Mon Oct 21, 7:10pm

Mon Oct 21, 7:01pm

Mon Oct 21, 6:10pm

Mon Oct 21, 6:01pm

Mon Oct 21, 5:10pm

Mon Oct 21, 5:01pm

Mon Oct 21, 4:10pm

Mon Oct 21, 4:00pm

Mon Oct 21, 3:10pm

Mon Oct 21, 3:01pm

Mon Oct 21, 2:10pm

Mon Oct 21, 2:00pm

Mon Oct 21, 1:10pm

Mon Oct 21, 1:01pm

Mon Oct 21, 12:10pm

Mon Oct 21, 12:00pm

Mon Oct 21, 11:10am

Mon Oct 21, 11:00am

Mon Oct 21, 10:10am

Mon Oct 21, 10:00am

Mon Oct 21, 9:10am

Mon Oct 21, 9:00am

Mon Oct 21, 7:10am

Mon Oct 21, 7:00am

Mon Oct 21, 6:10am

Mon Oct 21, 6:00am

Mon Oct 21, 5:10am

Mon Oct 21, 5:00am

Mon Oct 21, 4:10am

Mon Oct 21, 4:00am

Mon Oct 21, 3:10am

Mon Oct 21, 3:00am

Mon Oct 21, 2:10am

Mon Oct 21, 2:01am

Mon Oct 21, 1:10am

Mon Oct 21, 1:00am

Mon Oct 21, 12:10am

Mon Oct 21, 12:00am

Sun Oct 20, 11:10pm

Sun Oct 20, 11:00pm

Sun Oct 20, 10:10pm

Sun Oct 20, 10:00pm

Sun Oct 20, 9:10pm

Sun Oct 20, 9:01pm

Sun Oct 20, 8:10pm

Sun Oct 20, 8:00pm

Sun Oct 20, 7:10pm

Sun Oct 20, 7:01pm

Sun Oct 20, 6:10pm

Sun Oct 20, 6:00pm

Sun Oct 20, 5:10pm

Sun Oct 20, 5:00pm

Sun Oct 20, 4:10pm

Sun Oct 20, 4:00pm

Sun Oct 20, 3:10pm

Sun Oct 20, 3:00pm

Sun Oct 20, 2:10pm

Sun Oct 20, 2:01pm

Sun Oct 20, 1:10pm

Sun Oct 20, 1:01pm

Sun Oct 20, 12:10pm

Sun Oct 20, 12:00pm

Sun Oct 20, 11:10am

Sun Oct 20, 11:00am

Sun Oct 20, 10:10am

Sun Oct 20, 10:00am

Sun Oct 20, 9:10am

Sun Oct 20, 9:00am

Sun Oct 20, 8:10am

Sun Oct 20, 8:00am

Sun Oct 20, 7:10am

Sun Oct 20, 7:00am

Sun Oct 20, 6:10am

Sun Oct 20, 6:00am

Sun Oct 20, 5:10am

Sun Oct 20, 5:00am

Sun Oct 20, 4:10am

Sun Oct 20, 4:00am

Sun Oct 20, 3:10am

Sun Oct 20, 3:00am

Sun Oct 20, 2:10am

Sun Oct 20, 2:00am

Sun Oct 20, 1:10am

Sun Oct 20, 1:00am

Sun Oct 20, 12:10am

Sun Oct 20, 12:00am

Sat Oct 19, 11:10pm

Sat Oct 19, 11:00pm

Sat Oct 19, 10:10pm

Sat Oct 19, 10:00pm

Sat Oct 19, 9:10pm

Sat Oct 19, 9:00pm

Sat Oct 19, 8:10pm

Sat Oct 19, 8:00pm

Sat Oct 19, 7:00pm

Sat Oct 19, 6:10pm

Sat Oct 19, 6:00pm

Sat Oct 19, 5:10pm

Sat Oct 19, 5:00pm

Sat Oct 19, 4:10pm

Sat Oct 19, 4:00pm

Sat Oct 19, 3:10pm

Sat Oct 19, 3:01pm

Sat Oct 19, 2:10pm

Sat Oct 19, 2:00pm

Sat Oct 19, 1:10pm

Sat Oct 19, 1:01pm

Sat Oct 19, 12:10pm

Sat Oct 19, 12:00pm

Sat Oct 19, 11:10am

Sat Oct 19, 11:01am

Sat Oct 19, 10:10am

Sat Oct 19, 10:00am

Sat Oct 19, 9:10am

Sat Oct 19, 9:00am

Sat Oct 19, 8:10am

Sat Oct 19, 8:00am

Sat Oct 19, 7:10am

Sat Oct 19, 7:00am

Sat Oct 19, 6:10am

Sat Oct 19, 6:00am

Sat Oct 19, 5:10am

Sat Oct 19, 5:00am

Sat Oct 19, 4:10am

Sat Oct 19, 4:00am

Sat Oct 19, 3:10am

Sat Oct 19, 3:00am

Sat Oct 19, 2:10am

Sat Oct 19, 2:00am

Meta data:

ID: 7cbf8bf5-c721-4bce-b44d-66689c85de79
Link: https://api.weather.gov/products/7cbf8bf5-c721-4bce-b44d-66689c85de79